Zurück zum Katalog

SL-8 R/B

AktivLEO
NORAD 9023·ROCKET BODY·🇷🇺 Russia

Gestartet Jul 15, 1976 von Plesetsk Cosmodrome

Loading…

Nächste Überflüge (nächste 24 Stunden)

TLE

AktuellSource: Space-Track

Epoche: Sep 14, 2026, 05:34 UTC

1 09023U 76069B   26257.23259891  .00000143  00000-0  52372-4 0  9994
2 09023  74.0445 340.9260 0016591  28.6048 331.6015 14.41262415630507

Verfolge SL-8 R/B in Echtzeit mit AllMySat

Download on the App Store